Weather History for Ainsworth, NE

Change the Weather History Date:

Thursday, February 14, 2013

  Actual Average Record
Temperature  
Mean Temperature 26 °F -  
Max Temperature 36 °F 38 °F 73 °F (1999)
Min Temperature 14 °F 19 °F -11 °F (2007)
Degree Days  
Heating Degree Days 40    
Moisture  
Dew Point 21 °F    
Average Humidity 73    
Maximum Humidity 88    
Minimum Humidity 54    
Precipitation  
Precipitation 0.00 in - - ()
Sea Level Pressure  
Sea Level Pressure 30.08 in    
Wind  
Wind Speed 15 mph (NW)    
Max Wind Speed 40 mph    
Max Gust Speed 54 mph    
Visibility 10 miles    
Events Snow    
Averages and records for this station are not official NWS values.
T = Trace of Precipitation, MM = Missing Value Source: NWS Daily Summary

Daily Weather History Graph

Daily Weather History Graph

Search for Another Location

Airport:

Trip Planner

Search our weather history database for the weather conditions in past years. The results will help you decide how hot, cold, wet, or windy it might be!

Date:

Astronomy

Feb. 14, 2013 Rise Set
Actual Time 7:37 AM CST 6:11 PM CST
Civil Twilight 7:08 AM CST 6:40 PM CST
Nautical Twilight 6:35 AM CST 7:13 PM CST
Astronomical Twilight 6:03 AM CST 7:45 PM CST
Moon 9:33 AM CST (2/14) 11:23 PM CST (2/14)
Length of Visible Light 11h 31m
Length of Day
10h 33m
Waxing Crescent, 22% of the Moon is Illuminated
Feb 14
Waxing Crescent
Feb 17
First Quarter
Feb 25
Full
Mar 4
Last Quarter
Mar 11
New

Hourly Weather History & Observations

Time (CST) Temp. Windchill Dew Point Humidity Pressure Visibility Wind Dir Wind Speed Gust Speed Precip Events Conditions
12:15 AM 36.0 °F 28.0 °F 30.0 °F 79% 29.89 in 10.0 mi WNW 11.5 mph - N/A   Clear
12:35 AM 36.1 °F 28.7 °F 29.7 °F 77% 29.89 in 10.0 mi WNW 10.4 mph - N/A   Scattered Clouds
12:55 AM 36.1 °F 26.9 °F 28.9 °F 75% 29.89 in 10.0 mi WNW 15.0 mph 18.4 mph N/A   Scattered Clouds
1:15 AM 36.5 °F 27.8 °F 28.6 °F 73% 29.89 in 10.0 mi WNW 13.8 mph - N/A   Clear
1:35 AM 35.6 °F 27.1 °F 28.2 °F 75% 29.90 in 10.0 mi WNW 12.7 mph - N/A   Clear
1:55 AM 34.9 °F 26.6 °F 28.0 °F 76% 29.90 in 10.0 mi WNW 11.5 mph - N/A   Clear
2:15 AM 34.3 °F 26.5 °F 27.9 °F 77% 29.90 in 10.0 mi WNW 10.4 mph - N/A   Clear
2:35 AM 34.2 °F 25.7 °F 27.5 °F 77% 29.91 in 10.0 mi WNW 11.5 mph 18.4 mph N/A   Clear
2:55 AM 33.6 °F 25.6 °F 27.5 °F 78% 29.92 in 10.0 mi WNW 10.4 mph - N/A   Clear
3:15 AM 32.5 °F 25.5 °F 27.1 °F 80% 29.92 in 10.0 mi WNW 8.1 mph - N/A   Clear
3:35 AM 32.5 °F 24.8 °F 27.5 °F 82% 29.93 in 10.0 mi WNW 9.2 mph - N/A   Clear
3:55 AM 32.4 °F 24.0 °F 27.5 °F 82% 29.94 in 10.0 mi WNW 10.4 mph - N/A   Clear
4:15 AM 31.6 °F 25.1 °F 26.6 °F 82% 29.92 in 10.0 mi West 6.9 mph - N/A   Clear
4:35 AM 30.4 °F 23.6 °F 25.7 °F 83% 29.94 in 10.0 mi WNW 6.9 mph - N/A   Clear
4:55 AM 29.8 °F 23.0 °F 25.2 °F 83% 29.94 in 10.0 mi West 6.9 mph - N/A   Clear
5:15 AM 30.7 °F 24.1 °F 24.6 °F 78% 29.94 in 10.0 mi NW 6.9 mph - N/A   Clear
5:35 AM 30.4 °F 23.6 °F 23.7 °F 76% 29.94 in 10.0 mi WNW 6.9 mph - N/A   Clear
5:55 AM 29.7 °F 23.7 °F 22.6 °F 75% 29.94 in 10.0 mi WNW 5.8 mph - N/A   Clear
6:15 AM 29.7 °F 22.0 °F 22.5 °F 75% 29.95 in 10.0 mi WNW 8.1 mph - N/A   Clear
6:35 AM 28.9 °F 21.1 °F 22.1 °F 76% 29.95 in 10.0 mi WNW 8.1 mph - N/A   Clear
6:55 AM 28.9 °F 21.1 °F 21.9 °F 75% 29.96 in 10.0 mi WNW 8.1 mph - N/A   Clear
7:15 AM 29.3 °F 20.8 °F 21.7 °F 73% 29.96 in 10.0 mi NW 9.2 mph - N/A   Scattered Clouds
7:35 AM 29.3 °F 20.8 °F 21.2 °F 72% 29.97 in 10.0 mi NW 9.2 mph - N/A   Clear
7:55 AM 30.2 °F 21.9 °F 20.8 °F 68% 29.98 in 10.0 mi NW 9.2 mph - N/A   Scattered Clouds
8:15 AM 32.0 °F 23.0 °F 21.2 °F 64% 29.99 in 10.0 mi NW 11.5 mph - N/A   Mostly Cloudy
8:35 AM 32.5 °F 23.2 °F 21.2 °F 63% 29.99 in 10.0 mi NW 12.7 mph 18.4 mph N/A   Mostly Cloudy
8:55 AM 33.3 °F 22.5 °F 21.2 °F 61% 30.01 in 10.0 mi NW 17.3 mph 25.3 mph N/A   Mostly Cloudy
9:15 AM 33.8 °F 22.8 °F 21.9 °F 62% 30.01 in 10.0 mi NW 18.4 mph 23.0 mph N/A   Scattered Clouds
9:35 AM 34.3 °F 22.3 °F 21.0 °F 58% 30.01 in 10.0 mi NW 23.0 mph 40.3 mph N/A   Mostly Cloudy
9:55 AM 34.2 °F 22.3 °F 20.3 °F 57% 30.03 in 10.0 mi NW 21.9 mph 35.7 mph N/A   Scattered Clouds
10:15 AM 34.9 °F 22.5 °F 19.8 °F 54% 30.02 in 10.0 mi NW 25.3 mph 35.7 mph N/A   Scattered Clouds
10:35 AM 34.0 °F 20.1 °F 19.2 °F 55% 30.04 in 10.0 mi NW 31.1 mph 39.1 mph N/A   Scattered Clouds
10:55 AM 34.2 °F 21.8 °F 19.6 °F 55% 30.03 in 10.0 mi NW 24.2 mph 31.1 mph N/A   Clear
11:15 AM 34.7 °F 22.2 °F 20.3 °F 56% 30.04 in 10.0 mi NW 25.3 mph 39.1 mph N/A   Mostly Cloudy
11:35 AM 34.2 °F 20.8 °F 19.4 °F 55% 30.05 in 10.0 mi NW 28.8 mph 35.7 mph N/A   Overcast
11:55 AM 34.2 °F 21.5 °F 20.3 °F 57% 30.05 in 10.0 mi WNW 25.3 mph 34.5 mph N/A   Overcast
12:15 PM 34.2 °F 20.3 °F 20.7 °F 58% 30.06 in 10.0 mi NW 31.1 mph 38.0 mph N/A   Overcast
12:35 PM 33.8 °F 20.3 °F 21.2 °F 60% 30.05 in 10.0 mi NW 28.8 mph 42.6 mph N/A   Overcast
12:55 PM 33.3 °F 17.7 °F 21.0 °F 61% 30.06 in 10.0 mi NW 39.1 mph 48.3 mph N/A   Overcast
1:15 PM 32.5 °F 17.5 °F 21.6 °F 64% 30.06 in 10.0 mi NW 34.5 mph 46.0 mph N/A   Overcast
1:35 PM 31.8 °F 17.2 °F 22.3 °F 68% 30.07 in 10.0 mi NW 31.1 mph 46.0 mph N/A   Overcast
1:55 PM 30.4 °F 15.4 °F 21.9 °F 71% 30.08 in 10.0 mi NW 29.9 mph 42.6 mph N/A   Overcast
2:15 PM 30.2 °F 14.7 °F 21.6 °F 70% 30.09 in 10.0 mi NW 32.2 mph 46.0 mph N/A Snow Light Snow
2:35 PM 29.8 °F 12.8 °F 21.4 °F 71% 30.10 in 7.0 mi NNW 40.3 mph 50.6 mph N/A   Overcast
2:55 PM 29.7 °F 13.1 °F 19.6 °F 66% 30.12 in 10.0 mi NNW 36.8 mph 54.1 mph N/A   Overcast
3:15 PM 28.8 °F 11.3 °F 18.5 °F 66% 30.14 in 10.0 mi NNW 40.3 mph 48.3 mph N/A   Overcast
3:35 PM 28.6 °F 12.7 °F 19.9 °F 70% 30.15 in 7.0 mi NNW 31.1 mph 42.6 mph N/A   Overcast
3:55 PM 28.9 °F 12.3 °F 20.3 °F 70% 30.17 in 10.0 mi NNW 35.7 mph 43.7 mph N/A   Overcast
4:15 PM 28.9 °F 13.7 °F 19.6 °F 68% 30.19 in 10.0 mi NNW 28.8 mph 40.3 mph N/A   Overcast
4:35 PM 27.9 °F 12.8 °F 19.2 °F 70% 30.20 in 10.0 mi NNW 26.5 mph 35.7 mph N/A   Overcast
4:55 PM 28.2 °F 13.0 °F 17.6 °F 64% 30.21 in 10.0 mi NNW 27.6 mph 40.3 mph N/A   Mostly Cloudy
5:15 PM 26.4 °F 12.1 °F 18.0 °F 70% 30.21 in 10.0 mi NNW 21.9 mph - N/A   Scattered Clouds
5:35 PM 26.6 °F 13.1 °F 18.5 °F 71% 30.22 in 10.0 mi North 19.6 mph 25.3 mph N/A   Mostly Cloudy
5:55 PM 26.2 °F 12.2 °F 18.7 °F 73% 30.22 in 10.0 mi North 20.7 mph - N/A Snow Light Snow
6:15 PM 26.1 °F 13.6 °F 19.2 °F 75% 30.23 in 10.0 mi North 16.1 mph - N/A   Overcast
6:35 PM 24.6 °F 12.7 °F 18.7 °F 78% 30.24 in 10.0 mi North 13.8 mph - N/A   Mostly Cloudy
6:55 PM 24.1 °F 13.1 °F 18.5 °F 79% 30.24 in 10.0 mi North 11.5 mph - N/A   Scattered Clouds
7:15 PM 23.5 °F 12.4 °F 18.7 °F 82% 30.25 in 10.0 mi North 11.5 mph - N/A   Scattered Clouds
7:35 PM 23.9 °F 13.5 °F 19.2 °F 82% 30.25 in 10.0 mi North 10.4 mph - N/A   Mostly Cloudy
7:55 PM 23.5 °F 11.8 °F 18.5 °F 81% 30.26 in 10.0 mi North 12.7 mph - N/A   Mostly Cloudy
8:15 PM 22.6 °F 12.6 °F 18.1 °F 83% 30.26 in 10.0 mi NNW 9.2 mph - N/A   Scattered Clouds
8:35 PM 22.1 °F 12.8 °F 18.0 °F 84% 30.26 in 10.0 mi NNW 8.1 mph - N/A   Scattered Clouds
8:55 PM 22.5 °F 14.1 °F 18.1 °F 83% 30.26 in 10.0 mi NNW 6.9 mph - N/A   Mostly Cloudy
9:15 PM 21.6 °F 15.3 °F 17.4 °F 84% 30.26 in 10.0 mi NW 4.6 mph - N/A   Scattered Clouds
9:35 PM 20.8 °F 14.4 °F 16.7 °F 84% 30.27 in 10.0 mi NNW 4.6 mph - N/A   Scattered Clouds
9:55 PM 19.9 °F - 16.3 °F 86% 30.27 in 10.0 mi Calm Calm - N/A   Scattered Clouds
10:15 PM 19.4 °F 14.3 °F 15.3 °F 84% 30.28 in 10.0 mi NW 3.5 mph - N/A   Clear
10:35 PM 16.9 °F 8.5 °F 13.5 °F 86% 30.28 in 10.0 mi West 5.8 mph - N/A   Clear
10:55 PM 17.4 °F 10.4 °F 14.0 °F 86% 30.28 in 10.0 mi WNW 4.6 mph - N/A   Clear
11:15 PM 16.2 °F 7.6 °F 13.1 °F 88% 30.28 in 10.0 mi West 5.8 mph - N/A   Clear
11:35 PM 15.3 °F 5.4 °F 12.2 °F 88% 30.28 in 10.0 mi WSW 6.9 mph - N/A   Clear
11:55 PM 14.7 °F 7.3 °F 11.5 °F 87% 30.29 in 10.0 mi WSW 4.6 mph - N/A   Clear